"Date","BrandLoyalties Consumer Services Index"
"01/02/2008",10.0000
"01/03/2008",9.5748
"01/04/2008",9.2813
"01/07/2008",9.3399
"01/08/2008",9.0765
"01/09/2008",9.1314
"01/10/2008",9.3582
"01/11/2008",9.0791
"01/14/2008",9.1673
"01/15/2008",9.0375
"01/16/2008",9.0746
"01/17/2008",8.9401
"01/18/2008",8.9170
"01/22/2008",8.7827
"01/23/2008",9.1405
"01/24/2008",9.1480
"01/25/2008",9.0575
"01/28/2008",9.1124
"01/29/2008",9.1625
"01/30/2008",9.1030
"01/31/2008",9.3795
"02/01/2008",9.5771
"02/04/2008",9.4121
"02/05/2008",9.2368
"02/06/2008",9.1827
"02/07/2008",9.3410
"02/08/2008",9.2971
"02/11/2008",9.3310
"02/12/2008",9.3410
"02/13/2008",9.5092
"02/14/2008",9.2885
"02/15/2008",9.2938
"02/19/2008",14.1197
"02/20/2008",9.6657
"02/21/2008",9.2058
"02/22/2008",9.2295
"02/25/2008",9.2794
"02/26/2008",9.3656
"02/27/2008",9.3545
"02/28/2008",9.2106
"02/29/2008",9.0142
"03/03/2008",8.9608
"03/04/2008",9.0061
"03/05/2008",9.1145
"03/06/2008",8.8596
"03/07/2008",8.7457
"03/10/2008",8.6206
"03/11/2008",8.8414
"03/12/2008",8.7155
"03/13/2008",8.7812
"03/14/2008",8.6380
"03/17/2008",8.5064
"03/18/2008",8.8193
"03/19/2008",8.7617
"03/20/2008",9.0935
"03/24/2008",12.9339
"03/25/2008",9.2724
"03/26/2008",9.1388
"03/27/2008",9.0279
"03/28/2008",8.8558
"03/31/2008",8.9859
"04/01/2008",9.3536
"04/02/2008",9.3909
"04/03/2008",9.4110
"04/04/2008",9.3923
"04/07/2008",9.4174
"04/08/2008",9.3852
"04/09/2008",9.1448
"04/10/2008",9.2663
"04/11/2008",9.0503
"04/14/2008",9.0259
"04/15/2008",9.0560
"04/16/2008",9.2963
"04/17/2008",9.2403
"04/18/2008",9.4644
"04/21/2008",9.4579
"04/22/2008",9.1073
"04/23/2008",9.1873
"04/24/2008",9.2818
"04/25/2008",9.3622
"04/28/2008",9.3408
"04/29/2008",9.3667
"04/30/2008",9.4099
"05/01/2008",9.6457
"05/02/2008",9.5962
"05/05/2008",9.5162
"05/06/2008",9.5063
"05/07/2008",9.3570
"05/08/2008",9.4216
"05/09/2008",9.2291
"05/12/2008",9.4009
"05/13/2008",9.4552
"05/14/2008",9.4979
"05/15/2008",9.6164
"05/16/2008",9.5966
"05/19/2008",9.5181
"05/20/2008",9.3846
"05/21/2008",9.1889
"05/22/2008",9.3197
"05/23/2008",9.1183
"05/27/2008",9.9070
"05/28/2008",9.9668
"05/29/2008",10.0813
"05/30/2008",10.1062
"06/02/2008",9.9284
"06/03/2008",9.9327
"06/04/2008",10.0578
"06/05/2008",10.1929
"06/06/2008",9.8104
"06/09/2008",9.0894
"06/10/2008",9.0883
"06/11/2008",8.8660
"06/12/2008",8.9068
"06/13/2008",9.1034
"06/16/2008",9.1223
"06/17/2008",8.9718
"06/18/2008",8.8530
"06/19/2008",8.9973
"06/20/2008",8.7977
"06/23/2008",8.6581
"06/24/2008",8.6613
"06/25/2008",8.8433
"06/26/2008",8.5326
"06/27/2008",8.4420
"06/30/2008",8.4291
"07/01/2008",8.3179
"07/02/2008",8.1082
"07/03/2008",8.1100
"07/07/2008",8.4488
"07/08/2008",8.4679
"07/09/2008",8.1537
"07/10/2008",7.9805
"07/11/2008",7.8654
"07/14/2008",7.7484
"07/15/2008",7.7268
"07/16/2008",8.2099
"07/17/2008",8.4816
"07/18/2008",8.5550
"07/21/2008",8.4501
"07/22/2008",9.1657
"07/23/2008",9.4220
"07/24/2008",8.8207
"07/25/2008",8.8973
"07/28/2008",8.6935
"07/29/2008",9.1353
"07/30/2008",9.1206
"07/31/2008",9.0948
"08/01/2008",9.0662
"08/04/2008",9.1913
"08/05/2008",9.6977
"08/06/2008",9.6988
"08/07/2008",9.5144
"08/08/2008",10.0198
"08/11/2008",10.2885
"08/12/2008",10.3063
"08/13/2008",10.0783
"08/14/2008",10.2573
"08/15/2008",10.4031
"08/18/2008",10.1650
"08/19/2008",9.7328
"08/20/2008",9.6329
"08/21/2008",9.4778
"08/22/2008",9.8658
"08/25/2008",9.6746
"08/26/2008",9.5559
"08/27/2008",9.5639
"08/28/2008",9.9611
"08/29/2008",9.9569
"09/02/2008",10.2010
"09/03/2008",10.1328
"09/04/2008",9.7907
"09/05/2008",9.8882
"09/08/2008",10.0144
"09/09/2008",9.7632
"09/10/2008",9.6489
"09/11/2008",9.8637
"09/12/2008",9.8170
"09/15/2008",9.6092
"09/16/2008",10.0626
"09/17/2008",9.4456
"09/18/2008",9.7871
"09/19/2008",10.0035
"09/22/2008",9.4100
"09/23/2008",9.3871
"09/24/2008",9.1315
"09/25/2008",9.1440
"09/26/2008",9.1880
"09/29/2008",8.6410
"09/30/2008",8.9512
"10/01/2008",8.8971
"10/02/2008",8.5391
"10/03/2008",8.2954
"10/06/2008",7.9437
"10/07/2008",7.5085
"10/08/2008",7.3678
"10/09/2008",6.9631
"10/10/2008",7.0211
"10/13/2008",7.7783
"10/14/2008",7.5634
"10/15/2008",6.8524
"10/16/2008",7.1527
"10/17/2008",7.1842
"10/20/2008",7.4409
"10/21/2008",7.1407
"10/22/2008",6.7655
"10/23/2008",6.7048
"10/24/2008",6.4117
"10/27/2008",6.1440
"10/28/2008",6.7063
"10/29/2008",6.7122
"10/30/2008",6.9195
"10/31/2008",7.0691
"11/03/2008",7.1265
"11/04/2008",7.4069
"11/05/2008",6.9558
"11/06/2008",6.7086
"11/07/2008",6.8070
"11/10/2008",6.6544
"11/11/2008",6.5218
"11/12/2008",6.1603
"11/13/2008",6.6177
"11/14/2008",6.3347
"11/17/2008",6.1513
"11/18/2008",6.1384
"11/19/2008",5.6885
"11/20/2008",5.4009
"11/21/2008",5.6458
"11/24/2008",6.0126
"11/25/2008",6.0927
"11/26/2008",6.3884
"11/28/2008",9.0689
"12/01/2008",5.9159
"12/02/2008",6.1430
"12/03/2008",6.3103
"12/04/2008",6.1792
"12/05/2008",6.3571
"12/08/2008",6.6097
"12/09/2008",6.4781
"12/10/2008",6.4660
"12/11/2008",6.2715
"12/12/2008",6.3420
"12/15/2008",6.2107
"12/16/2008",6.5127
"12/17/2008",6.5663
"12/18/2008",6.4556
"12/19/2008",6.5510
"12/22/2008",6.4741
"12/23/2008",6.3872
"12/24/2008",6.3938
"12/26/2008",6.4582
"12/29/2008",6.3940
"12/30/2008",6.5931
"12/31/2008",6.7417
"01/02/2009",6.9558
"01/05/2009",6.9552
"01/06/2009",7.0393
"01/07/2009",6.8819
"01/08/2009",6.9848
"01/09/2009",6.7798
"01/12/2009",6.6215
"01/13/2009",6.5529
"01/14/2009",6.2775
"01/15/2009",6.3335
"01/16/2009",6.4991
"01/20/2009",6.9441
"01/21/2009",7.0053
"01/22/2009",6.3928
"01/23/2009",6.3716
"01/26/2009",6.3978
"01/27/2009",6.3695
"01/28/2009",6.5378
"01/29/2009",6.3180
"01/30/2009",6.0888
"02/02/2009",6.1349
"02/03/2009",6.2500
"02/04/2009",6.1790
"02/05/2009",6.3207
"02/06/2009",6.4671
"02/09/2009",6.4701
"02/10/2009",6.1820
"02/11/2009",6.1619
"02/12/2009",6.2099
"02/13/2009",6.2337
"02/17/2009",6.8059
"02/18/2009",5.9035
"02/19/2009",5.7765
"02/20/2009",5.8025
"02/23/2009",5.7398
"02/24/2009",5.9115
"02/25/2009",5.8096
"02/26/2009",5.7945
"02/27/2009",5.7735
"03/02/2009",5.5322
"03/03/2009",5.5137
"03/04/2009",5.6461
"03/05/2009",5.4178
"03/06/2009",5.4424
"03/09/2009",5.3928
"03/10/2009",5.6743
"03/11/2009",5.7604
"03/12/2009",6.0126
"03/13/2009",6.0376
"03/16/2009",5.8701
"03/17/2009",6.1166
"03/18/2009",6.3178
"03/19/2009",6.2128
"03/20/2009",6.0556
"03/23/2009",6.3836
"03/24/2009",6.2487
"03/25/2009",6.2836
"03/26/2009",6.5627
"03/27/2009",6.4159
"03/30/2009",6.2852
"03/31/2009",6.3687
"04/01/2009",6.5149
"04/02/2009",6.8752
"04/03/2009",6.9875
"04/06/2009",6.9566
"04/07/2009",6.7023
"04/08/2009",6.8409
"04/09/2009",7.1718
"04/13/2009",9.0151
"04/14/2009",7.0361
"04/15/2009",7.0595
"04/16/2009",7.2712
"04/17/2009",7.3509
"04/20/2009",6.9308
"04/21/2009",7.1173
"04/22/2009",7.2290
"04/23/2009",7.3350
"04/24/2009",7.4831
"04/27/2009",7.2478
"04/28/2009",7.2441
"04/29/2009",7.4936
"04/30/2009",7.5372
"05/01/2009",7.5206
"05/04/2009",7.8826
"05/05/2009",8.1023
"05/06/2009",8.1610
"05/07/2009",7.9155
"05/08/2009",7.9932
"05/11/2009",7.9348
"05/12/2009",7.8462
"05/13/2009",7.4013
"05/14/2009",7.4859
"05/15/2009",7.4191
"05/18/2009",7.7784
"05/19/2009",7.7673
"05/20/2009",7.6717
"05/21/2009",7.5926
"05/22/2009",7.5259
"05/26/2009",8.2295
"05/27/2009",7.9931
"05/28/2009",7.6848
"05/29/2009",7.7895
"06/01/2009",8.1377
"06/02/2009",8.1243
"06/03/2009",8.0571
"06/04/2009",8.0586
"06/05/2009",7.9936
"06/08/2009",7.8413
"06/09/2009",7.8734
"06/10/2009",7.7161
"06/11/2009",7.6774
"06/12/2009",7.7273
"06/15/2009",7.5248
"06/16/2009",7.3714
"06/17/2009",7.4596
"06/18/2009",7.5190
"06/19/2009",7.6021
"06/22/2009",7.2821
"06/23/2009",7.2455
"06/24/2009",7.2823
"06/25/2009",7.4571
"06/26/2009",7.4994
"06/29/2009",7.5297
"06/30/2009",7.4666
"07/01/2009",7.5555
"07/02/2009",7.3081
"07/06/2009",7.2824
"07/07/2009",7.1139
"07/08/2009",7.0764
"07/09/2009",7.2076
"07/10/2009",7.1891
"07/13/2009",7.3483
"07/14/2009",7.4429
"07/15/2009",7.6834
"07/16/2009",7.7622
"07/17/2009",7.7050
"07/20/2009",7.9415
"07/21/2009",7.8752
"07/22/2009",7.9260
"07/23/2009",8.1007
"07/24/2009",8.1682
"07/27/2009",8.1504
"07/28/2009",8.1726
"07/29/2009",8.1116
"07/30/2009",8.2677
"07/31/2009",8.1679
"08/03/2009",8.3246
"08/04/2009",8.5014
"08/05/2009",8.5443
"08/06/2009",8.4507
"08/07/2009",8.6958
"08/10/2009",8.5793
"08/11/2009",8.4871
"08/12/2009",8.6467
"08/13/2009",8.7360
"08/14/2009",8.5733
"08/17/2009",8.2644
"08/18/2009",8.3755
"08/19/2009",8.3963
"08/20/2009",8.5419
"08/21/2009",8.7568
"08/24/2009",8.6916
"08/25/2009",8.8057
"08/26/2009",8.8471
"08/27/2009",8.8618
"08/28/2009",8.8513
"08/31/2009",8.6659
"09/01/2009",8.3682
"09/02/2009",8.4039
"09/03/2009",8.5379
"09/04/2009",8.6975
"09/08/2009",8.7740
"09/09/2009",8.9240
"09/10/2009",9.1014
"09/11/2009",9.1676
"09/14/2009",9.3245
"09/15/2009",9.5829
"09/16/2009",9.7000
"09/17/2009",9.7969
"09/18/2009",9.7907
"09/21/2009",9.8424
"09/22/2009",9.8839
"09/23/2009",9.6737
"09/24/2009",9.6134
"09/25/2009",9.5547
"09/28/2009",9.6245
"09/29/2009",9.6291
"09/30/2009",9.5294
"10/01/2009",9.2572
"10/02/2009",9.1915
"10/05/2009",9.3175
"10/06/2009",9.5148
"10/07/2009",9.5374
"10/08/2009",9.6460
"10/09/2009",9.7199
"10/12/2009",9.7209
"10/13/2009",9.7125
"10/14/2009",9.7975
"10/15/2009",9.8497
"10/16/2009",9.7972
"10/19/2009",9.8910
"10/20/2009",9.8058
"10/21/2009",9.6887
"10/22/2009",9.8890
"10/23/2009",9.8212
"10/26/2009",9.7129
"10/27/2009",9.6643
"10/28/2009",9.4188
"10/29/2009",9.5372
"10/30/2009",9.2926
"11/02/2009",9.3154
"11/03/2009",9.3608
"11/04/2009",9.3660
"11/05/2009",9.6188
"11/06/2009",9.6634
"11/09/2009",9.7592
"11/10/2009",9.7317
"11/11/2009",9.7821
"11/12/2009",9.6879
"11/13/2009",9.7546
"11/16/2009",9.9095
"11/17/2009",9.9372
"11/18/2009",9.8227
"11/19/2009",9.6822
"11/20/2009",9.6461
"11/23/2009",9.7833
"11/24/2009",9.7582
"11/25/2009",9.7895
"11/27/2009",9.6373
"11/30/2009",9.6705
"12/01/2009",9.7636
"12/02/2009",9.8317
"12/03/2009",9.7794
"12/04/2009",9.9066
"12/07/2009",9.9428
"12/08/2009",9.8930
"12/09/2009",9.9161
"12/10/2009",9.9307
"12/11/2009",10.0214
"12/14/2009",10.1687
"12/15/2009",10.2110
"12/16/2009",10.3283
"12/17/2009",10.1902
"12/18/2009",10.3160
"12/21/2009",10.3425
"12/22/2009",10.4490
"12/23/2009",10.5962
"12/24/2009",10.6295
"12/28/2009",12.0428
"12/29/2009",10.6197
"12/30/2009",10.6309
"12/31/2009",10.5177
"01/04/2010",14.3505
"01/05/2010",10.7536
"01/06/2010",10.6397
"01/07/2010",10.6526
"01/08/2010",10.6656
"01/11/2010",10.7306
"01/12/2010",10.5000
"01/13/2010",10.6130
"01/14/2010",10.6310
"01/15/2010",10.5255
"01/19/2010",10.6353
"01/20/2010",10.5502
"01/21/2010",10.4347
"01/22/2010",10.2049
"01/25/2010",10.1591
"01/26/2010",10.1359
"01/27/2010",10.1985
"01/28/2010",10.1587
"01/29/2010",10.0831
"02/01/2010",10.1660
"02/02/2010",10.2664
"02/03/2010",10.2422
"02/04/2010",9.9931
"02/05/2010",10.0488
"02/08/2010",10.0465
"02/09/2010",10.1708
"02/10/2010",10.0937
"02/11/2010",10.1882
"02/12/2010",10.2413
"02/16/2010",11.5428
"02/17/2010",10.4625
"02/18/2010",10.5433
"02/19/2010",10.6174
"02/22/2010",10.5706
"02/23/2010",10.5149
"02/24/2010",10.6538
"02/25/2010",10.6250
"02/26/2010",10.6706
"03/01/2010",10.9213
"03/02/2010",10.9225
"03/03/2010",10.8926
"03/04/2010",10.9559
"03/05/2010",11.0912
"03/08/2010",11.0996
"03/09/2010",11.2133
"03/10/2010",11.3404
"03/11/2010",11.3543
"03/12/2010",11.3459
"03/15/2010",11.3215
"03/16/2010",11.3744
"03/17/2010",11.4267
"03/18/2010",11.4011
"03/19/2010",11.3332
"03/22/2010",11.4662
"03/23/2010",11.5610
"03/24/2010",11.4451
"03/25/2010",11.4135
"03/26/2010",11.4229
"03/29/2010",11.4484
"03/30/2010",11.4696
"03/31/2010",11.3930
"04/01/2010",11.4740
"04/05/2010",11.6937
"04/06/2010",11.7873
"04/07/2010",11.7224
"04/08/2010",11.8687
"04/09/2010",11.8868
"04/12/2010",12.0043
"04/13/2010",12.0927
"04/14/2010",12.2549
"04/15/2010",12.2971
"04/16/2010",12.1548
"04/19/2010",12.0978
"04/20/2010",12.2467
"04/21/2010",12.3565
"04/22/2010",12.5510
"04/23/2010",12.6391
"04/26/2010",12.6645
"04/27/2010",12.3336
"04/28/2010",12.2189
"04/29/2010",12.4242
"04/30/2010",12.0657
"05/03/2010",12.3772
"05/04/2010",11.9063
"05/05/2010",11.8000
"05/06/2010",11.4727
"05/07/2010",11.1485
"05/10/2010",11.6516
"05/11/2010",11.7862
"05/12/2010",12.0382
"05/13/2010",11.9716
"05/14/2010",11.7766
"05/17/2010",11.9035
"05/18/2010",11.7498
"05/19/2010",11.6532
"05/20/2010",11.1402
"05/21/2010",11.3125
"05/24/2010",11.2417
"05/25/2010",11.2852
"05/26/2010",11.3227
"05/27/2010",11.7231
"05/28/2010",11.6044
"06/01/2010",12.2375
"06/02/2010",12.5557
"06/03/2010",12.7018
"06/04/2010",11.6720
"06/07/2010",11.3874
"06/08/2010",11.0101
"06/09/2010",11.0514
"06/10/2010",11.3407
"06/11/2010",11.4939
"06/14/2010",11.5705
"06/15/2010",11.8224
"06/16/2010",11.8174
"06/17/2010",11.8407
"06/18/2010",11.8457
"06/21/2010",11.6907
"06/22/2010",11.4495
"06/23/2010",11.4520
"06/24/2010",11.2424
"06/25/2010",11.3564
"06/28/2010",11.2895
"06/29/2010",10.6418
"06/30/2010",10.5389
"07/01/2010",10.5746
"07/02/2010",10.4499
"07/06/2010",10.3975
"07/07/2010",10.7732
"07/08/2010",10.8525
"07/09/2010",10.9655
"07/12/2010",10.9717
"07/13/2010",11.2056
"07/14/2010",11.2450
"07/15/2010",11.1568
"07/16/2010",10.7953
"07/19/2010",10.7477
"07/20/2010",10.8879
"07/21/2010",10.7065
"07/22/2010",11.0169
"07/23/2010",11.2297
"07/26/2010",11.4538
"07/27/2010",11.3817
"07/28/2010",11.2899
"07/29/2010",11.2539
"07/30/2010",11.2435
"08/02/2010",11.4617
"08/03/2010",11.3841
"08/04/2010",11.4876
"08/05/2010",11.3627
"08/06/2010",11.3272
"08/09/2010",11.4667
"08/10/2010",11.3375
"08/11/2010",11.0133
"08/12/2010",10.9470
"08/13/2010",10.9215
"08/16/2010",10.9338
"08/17/2010",11.0936
"08/18/2010",11.1009
"08/19/2010",10.9373
"08/20/2010",11.0351
"08/23/2010",10.9238
"08/24/2010",10.7417
"08/25/2010",10.8583
"08/26/2010",10.8274
"08/27/2010",11.0123
"08/30/2010",10.7972
"08/31/2010",10.8618
"09/01/2010",11.2541
"09/02/2010",11.5163
"09/03/2010",11.6267
"09/07/2010",11.4747
"09/08/2010",11.5264
"09/09/2010",11.5528
"09/10/2010",11.6458
"09/13/2010",11.8147
"09/14/2010",11.7769
"09/15/2010",11.9048
"09/16/2010",11.8489
"09/17/2010",11.8333
"09/20/2010",12.1043
"09/21/2010",12.0497
"09/22/2010",11.9063
"09/23/2010",11.7995
"09/24/2010",12.1082
"09/27/2010",12.1758
"09/28/2010",12.2342
"09/29/2010",12.1856
"09/30/2010",12.1780
"10/01/2010",12.2519
"10/04/2010",12.0728
"10/05/2010",12.3142
"10/06/2010",12.1690
"10/07/2010",12.1732
"10/08/2010",12.2547
"10/11/2010",12.2503
"10/12/2010",12.3020
"10/13/2010",12.4116
"10/14/2010",12.1983
"10/15/2010",12.2502
"10/18/2010",12.2688
"10/19/2010",12.1037
"10/20/2010",12.2140
"10/21/2010",12.2443
"10/22/2010",12.4714
"10/25/2010",12.5056
"10/26/2010",12.4675
"10/27/2010",12.3538
"10/28/2010",12.4119
"10/29/2010",12.5024
"11/01/2010",12.5262
"11/02/2010",12.7111
"11/03/2010",12.6907
"11/04/2010",12.7796
"11/05/2010",12.8444
"11/08/2010",12.8108
"11/09/2010",12.7119
"11/10/2010",12.7863
"11/11/2010",12.8185
"11/12/2010",12.6745
"11/15/2010",12.6232
"11/16/2010",12.4105
"11/17/2010",12.4696
"11/18/2010",12.6142
"11/19/2010",12.6953
"11/22/2010",12.7793
"11/23/2010",12.6232
"11/24/2010",12.8099
"11/26/2010",13.2514
"11/29/2010",13.2303
"11/30/2010",12.6867
"12/01/2010",12.8577
"12/02/2010",12.9676
"12/03/2010",13.0021
"12/06/2010",13.0650
"12/07/2010",13.1438
"12/08/2010",13.0976
"12/09/2010",13.0587
"12/10/2010",13.1841
"12/13/2010",13.1348
"12/14/2010",13.1436
"12/15/2010",13.0642
"12/16/2010",13.0984
"12/17/2010",13.1793
"12/20/2010",13.2079
"12/21/2010",13.1770
"12/22/2010",13.1525
"12/23/2010",13.1313
"12/27/2010",13.6278
"12/28/2010",13.5848
"12/29/2010",13.6236
"12/30/2010",13.0906
"12/31/2010",12.9818
"01/03/2011",13.2384
"01/04/2011",13.1973
"01/05/2011",13.3323
"01/06/2011",13.3133
"01/07/2011",13.3187
"01/10/2011",13.2840
"01/11/2011",13.2485
"01/12/2011",13.3224
"01/13/2011",13.4255
"01/14/2011",13.5361
"01/18/2011",13.4342
"01/19/2011",13.3408
"01/20/2011",13.2414
"01/21/2011",13.0986
"01/24/2011",13.2192
"01/25/2011",13.1363
"01/26/2011",13.3863
"01/27/2011",13.5292
"01/28/2011",13.1503
"01/31/2011",13.1537
"02/01/2011",13.2976
"02/02/2011",13.4162
"02/03/2011",13.4905
"02/04/2011",13.5115
"02/07/2011",13.6392
"02/08/2011",13.7585
"02/09/2011",13.7414
"02/10/2011",13.9073
"02/11/2011",14.1296
"02/14/2011",14.1701
"02/15/2011",14.1373
"02/16/2011",14.2015
"02/17/2011",14.2307
"02/18/2011",14.2236
"02/22/2011",13.7328
"02/23/2011",13.4283
"02/24/2011",13.5035
"02/25/2011",13.7248
"02/28/2011",13.7060
"03/01/2011",13.4390
"03/02/2011",13.5194
"03/03/2011",13.7949
"03/04/2011",13.7133
"03/07/2011",13.5753
"03/08/2011",13.8370
"03/09/2011",13.7303
"03/10/2011",13.5846
"03/11/2011",13.6521
"03/14/2011",13.4830
"03/15/2011",13.4101
"03/16/2011",13.2131
"03/17/2011",13.2301
"03/18/2011",13.4099
"03/21/2011",13.6899
"03/22/2011",13.6210
"03/23/2011",13.6684
"03/24/2011",13.7770
"03/25/2011",13.8685
"03/28/2011",13.8389
"03/29/2011",13.8989
"03/30/2011",13.9997
"03/31/2011",13.9416
"04/01/2011",14.0407
"04/04/2011",14.0243
"04/05/2011",13.9505
"04/06/2011",13.9364
"04/07/2011",13.8040
"04/08/2011",13.6147
"04/11/2011",13.5996
"04/12/2011",13.6007
"04/13/2011",13.6245
"04/14/2011",13.6000
"04/15/2011",13.7186
"04/18/2011",13.6004
"04/19/2011",13.5829
"04/20/2011",13.7916
"04/21/2011",13.7321
"04/25/2011",15.3514
"04/26/2011",14.4140
"04/27/2011",14.5179
"04/28/2011",14.0268
"04/29/2011",14.0554
"05/02/2011",14.0138
"05/03/2011",13.9460
"05/04/2011",13.9270
"05/05/2011",14.1261
"05/06/2011",14.1454
"05/09/2011",14.1253
"05/10/2011",14.3955
"05/11/2011",14.3096
"05/12/2011",14.3735
"05/13/2011",14.2716
"05/16/2011",14.1451
"05/17/2011",14.1928
"05/18/2011",14.3625
"05/19/2011",14.5405
"05/20/2011",14.4450
"05/23/2011",14.2603
"05/24/2011",14.0704
"05/25/2011",14.0499
"05/26/2011",14.1982
"05/27/2011",14.2069
"05/31/2011",15.4189
"06/01/2011",15.1185
"06/02/2011",13.9483
"06/03/2011",13.6887
"06/06/2011",13.5067
"06/07/2011",13.5369
"06/08/2011",13.3937
"06/09/2011",13.4403
"06/10/2011",13.2566
"06/13/2011",13.3145
"06/14/2011",13.5531
"06/15/2011",13.3645
"06/16/2011",13.4000
"06/17/2011",13.4881
"06/20/2011",13.6185
"06/21/2011",13.8317
"06/22/2011",13.7203
"06/23/2011",13.9114
"06/24/2011",13.8022
"06/27/2011",13.9568
"06/28/2011",14.1957
"06/29/2011",14.1724
"06/30/2011",14.2429
"07/01/2011",14.5384
"07/05/2011",16.3855
"07/06/2011",16.3982
"07/07/2011",14.7890
"07/08/2011",14.7366
"07/11/2011",14.4621
"07/12/2011",14.3591
"07/13/2011",14.4661
"07/14/2011",14.3100
"07/15/2011",14.3221
"07/18/2011",14.1684
"07/19/2011",14.4041
"07/20/2011",14.2779
"07/21/2011",14.3281
"07/22/2011",14.3890
"07/25/2011",14.3006
"07/26/2011",14.3268
"07/27/2011",14.0036
"07/28/2011",13.9075
"07/29/2011",13.8802
"08/01/2011",13.7896
"08/02/2011",13.3301
"08/03/2011",13.5390
"08/04/2011",12.9455
"08/05/2011",12.7561
"08/08/2011",11.8863
"08/09/2011",12.4846
"08/10/2011",11.9706
"08/11/2011",12.5823
"08/12/2011",12.6374
"08/15/2011",12.9343
"08/16/2011",12.7991
"08/17/2011",12.7122
"08/18/2011",12.0491
"08/19/2011",11.9133
"08/22/2011",11.9498
"08/23/2011",12.4526
"08/24/2011",12.6072
"08/25/2011",12.2492
"08/26/2011",12.5729
"08/29/2011",12.9805
"08/30/2011",13.0442
"08/31/2011",13.0645
"09/01/2011",12.8904
"09/02/2011",12.5433
"09/06/2011",12.5281
"09/07/2011",12.8567
"09/08/2011",12.6579
"09/09/2011",12.2544
"09/12/2011",12.3500
"09/13/2011",12.5721
"09/14/2011",12.8068
"09/15/2011",12.8746
"09/16/2011",12.9232
"09/19/2011",12.9304
"09/20/2011",12.7628
"09/21/2011",12.4701
"09/22/2011",12.0176
"09/23/2011",12.2441
"09/26/2011",12.4583
"09/27/2011",12.5887
"09/28/2011",12.2966
"09/29/2011",12.2486
"09/30/2011",11.9148
"10/03/2011",11.4155
"10/04/2011",11.8122
"10/05/2011",11.9429
"10/06/2011",12.1844
"10/07/2011",12.0731
"10/10/2011",12.4412
"10/11/2011",12.5386
"10/12/2011",12.8013
"10/13/2011",12.8938
"10/14/2011",13.0245
"10/17/2011",12.6394
"10/18/2011",12.8937
"10/19/2011",12.6670
"10/20/2011",12.6293
"10/21/2011",12.9068
"10/24/2011",13.1778
"10/25/2011",12.9041
"10/26/2011",12.9591
"10/27/2011",13.5205
"10/28/2011",13.5223
"10/31/2011",13.2499
"11/01/2011",12.8194
"11/02/2011",13.0089
"11/03/2011",13.4135
"11/04/2011",13.3305
"11/07/2011",13.4035
"11/08/2011",13.5012
"11/09/2011",12.9407
"11/10/2011",13.0008
"11/11/2011",13.2875
"11/14/2011",13.1900
"11/15/2011",13.3058
"11/16/2011",13.1267
"11/17/2011",12.9400
"11/18/2011",12.9231
"11/21/2011",12.6856
"11/22/2011",12.6062
"11/23/2011",12.2966
"11/25/2011",18.2860
"11/28/2011",12.5530
"11/29/2011",12.4966
"11/30/2011",12.9700
"12/01/2011",13.0193
"12/02/2011",13.1291
"12/05/2011",13.2403
"12/06/2011",13.1540
"12/07/2011",13.2666
"12/08/2011",12.9357
"12/09/2011",13.1946
"12/12/2011",13.1699
"12/13/2011",12.9298
"12/14/2011",12.7739
"12/15/2011",12.9194
"12/16/2011",12.9655
"12/19/2011",12.8119
"12/20/2011",13.1353
"12/21/2011",13.1949
"12/22/2011",13.2800
"12/23/2011",13.3911
"12/27/2011",13.4255
"12/28/2011",13.2238
"12/29/2011",13.3362
"12/30/2011",13.2872
"01/03/2012",13.5445
"01/04/2012",13.5340
"01/05/2012",13.5544
"01/06/2012",13.2884
"01/09/2012",13.2966
"01/10/2012",13.3359
"01/11/2012",13.3271
"01/12/2012",13.3311
"01/13/2012",13.3200
"01/17/2012",13.6016
"01/18/2012",13.6617
"01/19/2012",13.6930
"01/20/2012",13.6872
"01/23/2012",13.6744
"01/24/2012",13.7026
"01/25/2012",13.7190
"01/26/2012",13.7313
"01/27/2012",13.7330
"01/30/2012",13.7159
"01/31/2012",13.7229
"02/01/2012",13.7545
"02/02/2012",13.7464
"02/03/2012",13.7828
"02/06/2012",13.7792
"02/07/2012",13.7941
"02/08/2012",13.7981
"02/09/2012",13.8036
"02/10/2012",13.7752
"02/13/2012",13.8018
"02/14/2012",13.8092
"02/15/2012",13.8328
"02/16/2012",13.8582
"02/17/2012",13.8534
"02/21/2012",13.8306
"02/22/2012",13.8261
"02/23/2012",13.8488
"02/24/2012",13.8206
"02/27/2012",13.8309
"02/28/2012",13.8340
"02/29/2012",13.8312
"03/01/2012",13.8357
"03/02/2012",13.8080
"03/05/2012",13.7937
"03/06/2012",13.7658
"03/07/2012",13.7815
"03/08/2012",13.8015
"03/09/2012",13.8136
"03/12/2012",13.8051
"03/13/2012",13.8659
"03/14/2012",13.5587
"03/15/2012",13.5777
"03/16/2012",13.5956
"03/19/2012",13.6123
"03/20/2012",13.6038
"03/21/2012",13.6186
"03/22/2012",13.6050
"03/23/2012",13.6056
"03/26/2012",13.6427
"03/27/2012",13.6361
"03/28/2012",13.6259
"03/29/2012",13.6286
"03/30/2012",13.6378
"04/02/2012",13.7355
"04/03/2012",13.7378
"04/04/2012",13.6038
"04/05/2012",13.6710
"04/09/2012",14.5310
"04/10/2012",13.6964
"04/11/2012",13.8115
"04/12/2012",14.0463
"04/13/2012",13.9350
"04/16/2012",13.3918
"04/17/2012",13.5787
"04/18/2012",13.5335
"04/19/2012",13.5953
"04/20/2012",13.5972
"04/23/2012",13.3975
"04/24/2012",13.4708
"04/25/2012",13.7133
"04/26/2012",13.7779
"04/27/2012",13.9007
"04/30/2012",13.8128
"05/01/2012",13.8245
"05/02/2012",13.9867
"05/03/2012",13.8826
"05/04/2012",13.6518
"05/07/2012",13.5939
"05/08/2012",13.6550
"05/09/2012",13.5657
"05/10/2012",13.5926
"05/11/2012",13.6178
"05/14/2012",13.4670
"05/15/2012",13.4888
"05/16/2012",13.4377
"05/17/2012",13.0330
"05/18/2012",12.9196
"05/21/2012",13.2204
"05/22/2012",13.1722
"05/23/2012",13.2681
"05/24/2012",13.4011
"05/25/2012",13.4214